User: anonymous   Login
Location: Haram ta Haram Freeway
(35.0583°N, 51.4202°E)
Time: 19:07:31
(UTC+03:30)
Language:

IRIDIUM 33 DEB - Orbit

View from above orbital plane
View from above orbital plane
View from above satellite
View from above satellite

Ground track
Ground track

The orbit data is extracted from the following two-line orbital elements,

1 38224U 97051YY  21330.81022943  .00005080  00000-0  13541-2 0  9998
2 38224  86.3756 356.7937 0106995 209.8985 149.6080 14.44921525485289
Epoch (UTC): 26 November 2021 19:26:43
Eccentricity: 0.0106995
inclination: 86.3756°
perigee height: 666 km
apogee height: 818 km
right ascension of ascending node: 356.7937°
argument of perigee: 209.8985°
revolutions per day: 14.44921525
mean anomaly at epoch: 149.6080°
orbit number at epoch: 48528

The dashed part of the orbit path shows where the satellite is in the earth's shadow,  

DLR